Theta_e
314 314 314 313 313 313 313 313 313 313 313 313 313 313 313 313 313 312 312 312 313 313 313 313 311 309 305 306 307 308 310 310 312 317 320 318 308 311 314 313 317 320 320 321 320 324 328 326 326 327 331 336 339 343 342 348 359 372 379 367 364 373 369 366 369 366 366 364 363 364 364 366 365 363 362 360 360 364 365 358 353 352 351 351 353 352 352 353
314 314 313 313 313 313 313 313 313 313 313 313 313 312 312 312 311 310 312 312 313 313 313 313 312 309 305 306 307 309 312 313 318 322 323 311 310 311 313 316 316 318 318 320 318 322 331 328 326 328 333 340 344 345 348 351 362 379 377 367 372 378 369 365 367 365 367 367 365 364 364 366 366 365 363 361 362 364 361 357 354 353 352 352 352 352 353 354
313 313 313 313 313 313 313 313 313 313 313 313 313 312 312 311 311 312 313 313 313 313 313 313 313 310 306 307 308 310 315 318 329 336 325 313 313 310 313 315 316 318 316 318 318 322 332 330 327 329 334 342 347 345 351 357 365 375 374 375 380 376 367 365 367 367 367 367 365 364 364 366 365 365 364 361 363 365 361 357 354 354 354 353 352 352 353 354
314 313 313 313 313 314 313 313 313 313 313 313 313 313 313 312 313 313 312 312 312 313 313 313 314 310 306 307 308 312 317 325 337 334 324 321 314 310 312 312 316 318 316 318 317 321 329 330 330 331 335 343 347 344 350 358 361 366 371 380 379 369 367 366 365 367 365 364 365 364 365 368 365 365 365 362 365 368 363 356 354 353 353 352 351 352 353 353
314 313 313 313 313 313 313 314 314 314 313 313 313 313 313 313 314 312 311 312 312 314 314 314 314 310 307 308 311 315 321 331 331 326 322 323 316 311 312 313 317 318 316 317 317 322 324 325 328 331 338 344 346 344 349 355 356 362 366 372 370 363 370 368 361 365 365 365 367 367 368 369 367 364 365 367 367 368 367 360 352 350 350 351 350 351 352 352
313 313 313 313 313 313 313 314 313 313 313 313 313 313 314 314 313 311 311 311 313 314 313 315 314 309 307 308 314 318 325 329 324 323 320 321 318 311 312 315 318 317 317 317 317 321 322 322 325 331 340 343 345 343 349 354 354 367 367 361 361 360 371 369 359 363 364 367 368 367 369 369 368 365 365 372 372 369 372 363 349 349 348 349 351 350 350 350
313 313 313 313 313 313 313 313 313 313 313 313 312 313 314 314 312 311 311 312 313 313 313 315 313 309 306 310 319 322 328 330 319 317 319 320 318 312 314 317 319 317 317 316 317 320 322 324 326 332 342 343 343 341 346 354 355 373 373 359 357 361 368 364 361 364 363 367 369 367 368 368 369 368 365 372 374 370 372 360 347 349 347 348 350 348 349 350
313 313 313 313 313 313 313 313 313 314 313 313 313 314 314 312 312 311 311 312 312 313 314 315 313 309 307 312 323 328 331 332 321 320 320 319 318 314 315 318 320 317 315 316 316 320 322 325 326 333 343 342 342 339 342 355 355 366 372 359 355 360 363 360 362 363 362 366 368 368 369 368 368 368 367 370 372 370 369 357 347 348 346 348 348 347 349 349
313 313 313 313 313 313 313 313 313 313 313 313 313 314 313 312 312 311 312 312 312 313 315 316 312 309 309 315 324 328 330 327 323 325 321 319 320 316 315 317 319 315 314 315 315 320 323 327 329 335 343 340 339 336 343 361 358 359 364 359 353 354 357 360 363 363 364 367 368 370 371 370 368 368 369 370 371 369 364 354 348 348 347 349 348 348 348 348
313 313 313 313 313 313 313 313 313 313 314 313 313 312 312 312 311 311 312 312 312 314 316 317 312 308 311 319 326 329 328 326 326 325 321 320 320 319 318 316 317 315 313 315 316 319 322 328 332 335 339 338 337 334 340 352 353 354 356 356 355 355 359 361 365 365 364 365 367 370 371 371 367 368 369 368 370 366 360 353 350 350 348 349 349 348 349 348
313 313 313 313 313 313 313 314 314 314 314 312 312 312 312 312 311 312 312 312 313 315 317 316 310 309 314 322 330 332 328 329 329 325 322 322 320 321 320 318 317 313 312 315 316 318 321 324 328 332 334 335 334 332 333 333 338 352 353 355 358 358 364 365 366 366 364 365 366 368 369 367 365 370 370 367 370 365 355 352 350 350 349 349 350 349 349 349
313 313 313 313 313 314 314 315 314 315 314 313 312 312 313 312 312 312 312 312 314 315 316 312 307 312 319 324 329 328 323 327 328 325 324 323 320 320 320 319 318 313 312 315 317 319 321 322 324 329 332 331 331 329 330 325 331 351 353 355 358 360 364 363 365 364 363 366 365 364 365 364 364 369 370 367 370 365 355 352 350 349 350 349 350 350 350 349
312 312 313 313 313 314 315 315 315 315 314 313 312 312 313 312 312 312 311 312 313 313 311 308 309 314 321 328 325 317 315 321 322 323 324 323 321 320 319 319 318 313 312 314 319 321 322 323 323 328 330 329 329 325 327 324 327 349 355 355 358 361 363 362 364 363 364 366 363 361 361 361 366 367 365 366 367 365 356 352 351 350 350 350 350 350 350 348
312 312 313 313 314 314 315 316 315 315 313 313 312 312 312 312 313 312 310 311 311 311 308 308 313 318 325 330 318 311 318 321 322 323 324 324 321 320 320 318 316 313 312 314 320 322 322 323 323 328 329 327 328 325 327 326 326 341 347 351 358 358 360 362 361 362 366 365 361 362 359 360 369 367 363 364 364 365 359 353 352 350 350 350 349 350 349 347
312 313 313 313 314 314 315 316 316 315 313 313 312 312 312 313 313 311 310 311 311 309 307 309 314 322 330 328 317 316 323 324 324 324 324 324 321 321 320 316 316 314 313 315 319 321 321 324 326 328 328 326 327 326 328 329 328 333 332 337 354 358 358 364 360 361 367 365 361 364 361 362 370 368 364 363 362 365 366 359 353 350 351 350 349 350 348 347
312 313 313 313 314 315 316 316 315 314 313 313 313 313 312 313 313 311 310 310 311 309 309 313 316 321 329 326 319 321 323 324 324 323 323 323 320 320 319 316 316 315 315 317 319 320 321 324 328 328 327 327 326 327 330 328 328 334 329 330 346 356 356 361 360 359 363 364 363 366 368 370 373 369 363 361 360 363 366 363 357 352 352 351 349 349 347 347
312 313 313 313 314 315 315 316 314 313 313 313 313 313 313 314 314 312 312 310 310 308 310 316 317 319 324 323 322 325 324 323 322 322 322 322 321 319 318 316 317 316 316 318 318 321 323 325 328 327 327 327 326 327 326 321 321 328 328 328 343 356 354 356 359 358 360 364 366 367 370 372 372 369 362 360 360 361 363 365 363 355 351 350 349 348 346 347
312 313 313 313 314 315 315 315 313 312 313 312 314 313 312 315 316 315 315 315 315 315 316 318 320 323 325 325 328 327 324 323 322 322 321 323 323 318 318 318 319 319 318 320 322 324 325 325 326 327 326 325 326 326 321 320 319 320 323 324 336 354 354 353 359 359 360 365 366 365 368 371 370 368 365 362 362 362 363 366 367 360 352 350 349 348 346 346
312 313 313 313 314 314 315 315 313 313 313 313 313 312 314 319 320 319 319 319 322 325 325 323 326 331 327 325 326 323 323 324 322 322 321 324 324 319 320 320 321 321 321 325 326 326 326 326 325 325 325 325 326 325 322 323 322 321 324 322 329 346 353 356 360 361 363 365 366 364 366 372 370 368 368 365 365 365 365 367 368 367 359 351 349 348 345 346
313 313 313 314 314 314 314 314 314 313 313 314 312 314 323 326 326 326 323 322 324 323 322 322 326 328 323 322 322 321 323 323 322 324 324 325 324 320 321 323 323 323 325 328 327 325 325 326 326 324 325 326 324 324 323 323 322 322 323 320 322 332 343 356 361 362 363 363 363 364 367 370 369 368 367 367 368 368 367 367 368 371 365 354 352 352 345 344
313 313 314 314 315 314 313 314 315 314 314 314 313 318 328 327 324 324 323 324 323 321 321 321 322 323 321 321 323 323 323 322 323 326 325 325 324 322 323 323 324 325 327 327 325 324 325 325 326 326 326 326 323 322 322 321 322 321 321 320 316 320 336 353 362 362 360 363 363 365 367 368 368 366 365 367 369 368 368 367 367 371 369 364 365 365 355 345
313 314 314 314 315 314 313 313 314 315 316 315 313 318 322 320 320 319 318 320 320 320 323 323 322 322 322 323 324 323 323 324 324 323 324 324 323 323 324 323 325 327 327 325 324 324 324 324 325 324 324 324 322 321 320 320 321 321 320 317 315 327 347 356 362 362 358 362 362 364 367 366 366 364 364 367 368 367 367 365 366 368 369 370 371 372 366 352
313 314 314 315 315 314 312 313 315 316 318 316 314 316 319 317 319 318 317 319 318 318 322 323 324 324 324 325 324 322 324 325 324 324 323 323 323 323 324 323 325 326 325 324 325 323 321 323 326 324 322 322 322 320 319 319 317 319 320 313 316 339 354 350 358 362 356 359 361 363 366 366 367 364 365 366 365 366 364 362 363 364 366 368 368 371 370 360
313 313 314 314 314 314 313 313 317 317 317 317 316 318 320 318 319 318 318 319 318 317 318 320 323 324 325 324 320 322 324 324 325 325 323 324 323 322 323 323 324 324 325 325 324 324 323 324 324 323 322 321 321 320 319 318 315 317 319 314 321 344 353 349 357 359 356 358 359 362 360 362 367 366 367 364 361 363 362 363 363 361 365 368 366 367 367 364
313 314 314 314 314 315 313 314 319 317 315 317 319 319 319 320 320 318 320 322 320 320 318 317 319 322 322 319 319 321 322 322 323 323 323 324 323 323 323 322 323 324 325 324 323 323 323 323 322 322 323 321 320 321 319 317 314 314 319 318 322 340 350 351 355 354 353 353 356 358 353 355 363 366 366 361 362 364 362 364 365 361 364 366 365 365 365 365
313 314 314 314 314 313 315 319 319 315 317 320 320 320 318 319 320 317 322 324 322 322 319 315 316 318 317 316 319 320 319 320 321 321 323 323 323 323 323 323 324 324 324 324 323 322 322 322 322 322 322 322 321 321 320 319 315 312 321 323 320 335 348 350 349 347 345 349 355 353 351 351 355 362 365 360 363 367 363 364 364 362 363 364 363 362 362 362
313 314 314 314 314 313 316 320 317 316 321 322 320 321 319 318 319 318 325 326 321 320 317 313 313 314 314 315 318 318 318 319 319 321 325 324 323 322 324 327 325 324 325 323 320 321 323 322 322 322 322 321 320 320 321 322 316 314 324 325 324 339 349 349 347 342 342 348 352 349 350 351 351 357 364 360 363 368 366 365 363 362 363 363 361 358 358 361
313 313 314 314 314 313 315 317 316 318 322 321 321 322 319 320 318 318 326 325 319 316 315 313 313 313 314 315 316 317 319 318 317 321 324 323 323 323 324 326 325 325 326 323 320 323 324 322 322 323 321 320 320 320 322 322 318 320 326 323 324 334 342 349 347 339 339 346 346 344 345 352 350 355 363 362 362 367 367 366 364 362 362 361 361 358 357 360
313 313 314 314 314 314 315 316 316 319 320 320 321 321 320 320 321 323 327 325 317 314 315 314 313 314 315 316 315 316 317 316 317 321 323 322 322 322 324 325 324 325 325 323 323 325 324 324 323 322 322 321 321 322 322 321 321 323 325 324 326 329 332 344 345 335 337 345 345 341 338 348 351 352 361 362 361 364 365 365 365 362 360 360 360 358 357 359
313 313 313 314 314 315 315 314 316 318 319 320 320 321 320 322 327 328 325 320 314 314 315 313 315 315 315 316 315 316 317 316 319 323 322 322 322 321 323 324 323 324 325 324 323 323 323 324 326 324 324 323 321 322 321 321 322 323 327 326 326 331 331 334 338 335 336 340 341 338 335 345 349 351 358 362 361 362 362 363 364 361 360 360 360 359 358 359
313 313 314 314 314 314 314 314 316 318 318 320 321 321 322 325 331 330 322 315 315 316 314 315 316 315 315 315 316 316 316 316 320 324 323 324 323 321 323 325 324 324 325 324 323 324 323 323 327 326 327 326 323 324 325 323 322 322 330 329 324 333 337 330 327 327 331 332 333 337 338 337 341 348 355 360 362 361 361 362 363 362 361 360 359 359 358 359
312 313 313 314 315 314 315 317 317 317 318 321 321 322 330 334 331 328 323 315 316 317 313 316 316 315 316 316 315 316 316 316 319 322 323 323 323 323 325 328 326 322 322 324 322 322 324 323 325 324 326 327 324 326 326 326 326 324 328 327 321 327 332 328 325 323 329 332 329 335 338 336 345 356 354 356 360 360 360 360 361 361 361 360 359 358 357 358
312 314 314 315 315 314 316 317 317 318 318 320 322 326 338 336 326 325 324 316 315 315 314 316 315 315 317 315 315 316 315 316 318 319 321 321 322 322 323 327 326 321 322 324 319 317 322 324 325 323 325 328 326 325 322 322 326 324 323 324 321 323 326 327 327 325 327 330 328 333 339 340 351 360 355 354 356 359 360 359 360 360 359 360 358 357 358 357
312 313 314 314 315 316 317 319 318 318 317 319 326 332 333 327 321 323 322 316 314 315 315 316 315 315 316 315 316 316 315 316 316 318 319 319 319 319 320 322 321 320 321 320 318 317 317 321 327 324 323 328 328 327 327 326 326 326 329 330 324 324 327 327 329 328 327 327 326 331 339 343 350 355 354 357 355 358 360 358 359 359 357 359 357 357 360 358
313 313 315 315 315 317 320 320 319 319 318 321 334 339 329 319 320 322 317 314 315 316 317 316 315 315 315 316 317 316 316 316 316 317 318 318 317 317 319 318 317 320 319 317 319 319 316 320 327 324 324 328 328 329 332 328 325 327 330 327 322 328 332 327 328 332 328 327 330 337 343 348 354 355 353 358 358 360 359 357 359 360 358 358 359 359 359 358
314 314 314 314 315 319 319 320 321 320 320 325 335 338 328 319 320 321 316 315 316 316 318 317 315 315 315 315 316 316 317 317 317 319 317 317 318 317 318 318 316 318 318 319 322 320 317 321 325 323 326 327 326 329 328 326 329 331 324 322 329 337 334 323 323 329 325 325 333 343 349 349 352 357 358 360 363 362 359 358 359 360 359 360 360 361 359 358
317 317 317 317 315 318 318 319 321 320 323 329 331 332 329 321 320 319 317 316 316 318 320 317 315 316 315 315 316 316 317 318 317 319 318 318 319 317 316 317 316 316 316 319 322 320 318 321 324 324 325 325 324 326 327 327 334 331 320 324 333 331 331 327 324 325 323 329 340 346 350 348 348 356 361 361 362 361 360 359 359 359 361 362 362 362 360 359
319 320 322 321 317 319 319 318 321 321 325 330 331 334 331 323 319 317 316 316 316 318 320 318 317 317 316 317 318 317 316 316 316 319 321 320 319 317 315 316 315 315 315 317 319 321 320 320 325 326 322 324 324 323 324 325 330 330 325 329 329 322 325 328 324 321 321 335 350 350 347 347 348 353 358 359 361 361 360 360 360 360 360 359 360 360 359 360
320 324 326 323 319 320 319 319 321 322 324 327 333 335 327 320 320 318 317 317 318 321 321 319 319 320 319 318 318 318 317 316 317 320 321 320 319 317 315 315 315 315 315 318 319 321 324 321 322 327 323 323 326 324 322 322 325 328 327 329 330 327 327 325 324 325 325 338 352 350 346 349 353 356 358 359 358 357 357 358 357 356 356 355 356 356 356 358
320 324 329 324 320 320 319 319 320 320 323 328 335 332 320 318 320 317 317 316 317 321 321 320 322 323 320 318 318 318 318 318 320 322 321 319 318 317 315 314 315 315 316 319 319 321 328 324 320 325 325 322 323 323 322 323 325 325 323 322 323 324 325 324 323 323 327 340 350 349 349 352 353 355 356 355 355 353 354 354 352 351 351 352 353 353 353 353
322 325 329 323 318 320 319 318 318 320 324 327 329 324 318 320 318 315 317 316 316 320 319 321 325 324 321 319 319 318 319 320 321 322 320 317 318 318 315 314 314 315 318 320 319 320 326 325 321 322 321 319 321 322 322 325 324 324 323 322 323 323 321 320 321 322 327 339 345 347 351 351 350 352 352 352 352 351 351 351 348 348 348 348 349 349 348 348
326 329 331 321 318 320 316 317 321 322 322 325 324 320 318 320 317 315 317 316 317 319 318 319 321 322 320 319 319 319 321 320 319 320 319 317 317 316 314 316 314 314 318 318 317 320 325 326 324 322 321 320 322 324 323 322 323 325 323 323 326 326 324 319 319 325 333 337 340 345 350 352 351 350 350 351 351 350 350 349 346 345 345 345 346 345 344 344
325 328 327 318 319 319 314 320 326 323 319 322 321 317 316 316 315 316 316 317 318 319 319 318 317 320 319 318 319 320 321 321 319 320 320 318 317 315 314 317 314 314 318 317 316 321 326 326 324 325 329 329 327 327 326 323 325 326 323 323 323 321 325 326 325 334 341 341 344 348 351 353 352 350 349 349 352 351 350 349 347 344 342 342 343 343 343 342
322 324 326 322 319 318 318 322 327 325 321 319 315 313 315 315 314 316 315 315 317 317 320 320 317 319 319 317 320 320 321 322 320 320 322 320 318 317 315 316 314 314 314 315 318 321 323 327 329 329 331 332 332 330 327 324 324 324 321 322 322 320 326 331 335 344 344 339 343 349 352 352 351 351 349 348 351 352 350 348 344 342 341 340 341 341 341 341
326 327 329 326 320 317 321 321 322 323 321 322 320 315 315 315 314 315 314 314 316 316 319 320 318 318 318 318 320 320 321 323 322 322 323 323 320 316 315 316 315 313 316 325 331 325 322 328 333 334 333 330 330 329 326 325 324 322 321 320 320 323 328 329 334 344 344 340 343 347 350 352 350 351 351 350 351 351 351 348 342 340 340 339 339 340 339 340
331 333 331 326 321 318 319 318 317 319 320 326 326 316 313 315 314 313 313 314 316 315 317 319 317 317 319 319 320 320 319 320 323 325 323 324 323 317 316 317 315 318 329 336 335 330 330 333 335 341 341 335 333 334 333 328 322 316 316 319 318 322 331 335 337 341 344 346 348 347 348 350 349 350 351 352 351 349 348 347 342 339 339 338 338 339 338 338
330 331 325 321 322 321 319 316 316 317 319 323 321 313 313 315 314 315 315 315 317 316 319 321 318 319 321 322 323 322 320 320 323 326 324 324 324 320 317 316 316 327 336 330 329 333 334 329 327 333 335 331 331 334 331 325 321 316 315 318 317 320 327 331 332 337 342 346 348 349 348 348 349 349 349 351 351 347 344 344 341 338 338 338 338 338 337 336
328 327 322 320 323 323 317 315 317 318 320 324 319 314 316 316 314 315 315 315 316 317 322 323 320 321 322 326 330 328 326 328 328 328 328 326 326 325 324 319 319 326 328 321 325 331 327 322 322 322 322 322 323 325 323 320 320 319 318 316 316 321 325 325 328 340 349 348 347 347 347 347 347 346 346 347 347 345 343 342 339 337 337 336 336 336 336 335
327 329 328 326 328 328 320 315 318 320 324 332 327 317 316 315 314 315 315 317 320 319 322 323 321 321 320 326 337 334 329 330 329 327 327 327 327 328 328 327 325 327 324 318 321 325 324 325 325 321 320 320 321 322 319 318 319 319 319 318 317 324 333 335 336 343 350 347 344 346 348 348 348 345 344 344 343 341 341 340 338 336 336 336 335 335 335 334
325 329 330 331 335 336 325 317 323 326 327 333 328 318 316 315 313 313 313 316 320 319 319 320 320 321 318 320 327 325 322 327 329 326 324 324 327 326 325 324 323 326 327 323 320 322 322 323 324 325 324 321 321 322 319 317 318 318 318 319 319 323 331 342 345 344 346 346 344 345 348 348 347 346 343 342 342 339 337 337 337 336 335 334 334 333 332 333
320 322 326 332 341 344 332 322 326 328 325 327 326 320 318 317 314 315 315 316 317 316 317 320 322 323 320 319 320 317 315 319 322 320 317 318 322 322 325 326 322 323 328 326 322 321 320 323 328 332 331 325 321 320 319 318 320 318 317 319 321 320 322 335 346 346 345 345 344 345 347 346 345 344 340 340 340 337 336 336 335 334 333 332 332 331 330 330
321 323 326 332 342 344 335 327 325 324 322 322 322 320 319 319 318 320 320 317 315 315 316 320 324 326 323 321 320 317 313 313 315 314 313 315 316 317 322 327 323 323 327 326 324 323 323 326 327 328 330 328 321 318 320 322 320 318 317 319 323 326 326 334 344 345 342 343 343 343 345 344 343 340 337 337 336 335 334 334 332 332 332 330 329 329 329 329
Wind_Speed
15 14 14 14 14 13 13 13 13 13 13 13 13 14 14 14 14 14 14 14 14 15 14 13 12 10 8 8 9 10 12 12 11 7 9 12 14 12 10 15 16 14 15 11 11 9 6 7 9 9 6 4 3 3 6 6 2 2 2 1 2 2 1 2 1 1 5 5 6 5 2 7 9 5 2 5 7 3 4 8 10 11 11 14 22 29 29 30
15 15 15 14 14 14 14 14 14 14 14 14 14 14 14 14 14 14 14 14 15 15 14 13 12 10 7 7 8 9 12 13 11 11 16 13 8 14 16 15 14 14 16 13 15 14 7 7 9 8 4 3 3 4 5 5 2 2 2 1 2 2 2 2 2 3 4 6 8 5 2 5 7 6 5 6 4 2 7 10 12 14 14 17 24 27 27 29
15 15 15 15 14 14 14 14 14 14 14 14 14 14 15 15 14 15 14 15 15 15 14 13 12 9 6 5 7 9 11 11 6 9 9 8 12 17 19 16 12 13 18 17 17 18 12 9 10 7 4 3 3 5 4 4 2 2 3 1 4 3 1 2 3 4 4 6 9 8 5 5 5 4 4 10 11 6 9 11 12 17 17 18 20 23 27 27
16 16 15 15 15 15 14 14 14 14 14 15 15 15 15 15 15 15 15 16 16 16 15 13 11 8 5 5 6 8 8 5 2 5 3 1 11 18 21 19 14 12 17 17 15 17 13 8 6 5 4 4 4 5 4 4 3 2 3 3 4 2 1 3 5 5 6 6 8 8 6 7 6 3 3 10 10 6 8 10 14 20 20 20 18 21 25 23
15 16 16 16 16 16 16 16 15 15 15 15 15 15 15 15 15 15 15 16 16 15 14 12 10 7 4 4 4 7 5 1 2 3 3 2 6 17 23 20 15 14 15 15 12 12 11 7 5 4 4 5 4 3 4 6 5 2 3 4 4 4 2 3 8 8 7 4 6 8 7 6 4 4 3 5 6 5 6 8 15 21 20 21 20 21 22 20
15 15 16 16 17 17 17 17 16 16 16 15 15 15 15 15 14 15 16 16 16 15 14 11 9 5 3 3 3 4 2 1 4 1 3 2 5 15 22 20 16 14 15 15 11 7 6 5 4 4 5 4 4 4 4 6 6 2 3 3 4 6 2 3 9 9 7 6 6 7 5 4 5 7 5 2 4 4 3 9 17 19 21 25 23 20 19 18
15 16 16 17 17 18 18 18 17 17 16 16 15 15 14 14 14 16 16 16 16 15 13 11 7 3 2 2 2 2 1 4 9 4 1 1 8 13 19 19 15 15 16 15 10 6 4 5 5 5 5 4 4 5 4 6 5 3 3 4 5 7 4 6 11 9 8 7 5 5 4 4 6 6 4 2 3 2 4 11 16 18 22 26 22 18 18 18
16 16 17 17 17 18 18 18 18 17 17 15 14 14 13 14 15 16 17 17 16 14 11 9 5 1 2 2 1 2 1 7 7 6 5 6 12 14 17 17 15 16 18 16 13 8 5 5 7 6 4 4 4 4 4 7 6 4 3 5 6 5 5 7 10 10 9 6 4 6 6 6 5 3 2 2 2 1 4 12 16 17 19 20 19 19 18 17
17 17 18 17 17 18 18 18 18 18 17 15 13 13 13 14 15 16 16 16 15 13 10 7 2 2 3 2 1 2 4 6 5 9 9 9 13 17 18 18 18 18 16 16 16 10 5 5 7 7 4 4 4 5 4 7 5 6 5 6 7 7 8 10 10 10 9 5 5 8 7 7 6 3 2 1 2 1 4 14 17 16 17 15 16 18 17 16
18 18 19 18 18 18 18 18 18 18 17 14 13 12 13 14 15 16 16 15 13 10 8 4 1 4 3 2 2 0 4 3 7 10 10 9 13 20 20 18 21 21 15 13 15 11 8 8 6 5 4 4 4 5 4 5 3 7 7 5 7 8 9 11 10 9 8 5 6 8 7 5 2 2 1 3 3 2 7 17 16 16 16 14 15 15 16 17
21 21 20 20 20 20 19 19 19 18 17 14 13 13 13 13 14 15 15 13 10 8 5 1 4 6 4 3 3 3 3 5 9 10 10 10 14 20 22 20 22 24 17 10 14 17 15 13 8 3 3 3 3 5 3 1 3 7 10 6 7 8 6 7 10 10 7 5 6 8 7 4 5 2 3 4 4 6 12 17 16 16 14 13 16 14 13 15
22 23 23 23 23 22 21 20 19 18 17 15 13 13 12 12 13 14 13 9 7 6 3 1 7 7 4 2 4 9 5 6 6 7 9 8 9 14 18 20 21 24 21 11 13 22 20 16 10 5 4 3 4 4 2 2 3 7 11 8 9 8 4 3 6 9 9 5 7 9 8 3 2 3 4 4 3 7 13 16 16 16 12 12 14 12 10 13
22 23 24 25 25 24 23 21 20 19 17 15 13 12 12 12 12 11 10 6 5 5 2 5 8 6 4 0 9 11 5 4 5 7 11 8 5 7 13 18 17 20 23 16 16 23 21 18 12 6 6 5 4 4 3 4 1 7 8 7 8 6 4 3 4 1 3 6 10 7 4 4 6 6 4 3 3 3 12 14 14 14 12 12 12 11 9 12
23 24 24 25 25 24 23 21 21 19 16 14 13 12 11 10 9 7 7 5 4 4 3 6 8 6 4 5 13 11 11 12 12 11 16 13 7 7 11 16 15 16 20 20 19 18 17 17 12 6 5 4 4 3 4 4 1 6 7 4 5 4 3 5 4 3 2 6 11 5 2 6 6 6 6 4 3 2 9 12 12 13 11 10 11 11 9 11
23 24 25 26 25 24 23 21 20 19 16 13 12 12 10 7 6 5 5 4 4 3 4 5 6 3 2 7 13 11 9 7 8 12 19 17 11 8 11 17 17 17 18 19 19 16 15 14 8 5 5 4 2 2 3 4 1 2 5 4 3 3 3 4 7 10 8 8 12 5 1 3 4 7 8 6 5 3 5 7 9 13 12 11 11 11 8 10
24 25 26 26 25 24 23 22 20 18 16 14 13 11 8 5 4 4 3 3 2 3 4 3 4 2 1 5 9 9 7 5 6 11 17 17 13 11 14 17 16 17 18 18 18 17 16 11 5 4 2 2 2 2 3 4 3 2 3 5 4 5 5 4 5 10 10 8 12 8 2 3 3 7 8 7 8 6 5 5 8 12 13 12 11 9 9 10
24 26 27 27 25 24 23 22 20 18 16 14 13 10 6 4 3 2 2 1 1 3 3 1 0 1 3 7 8 6 6 8 9 9 13 17 15 14 15 12 9 13 15 15 15 12 10 7 3 3 1 1 1 4 4 2 3 3 1 4 4 8 8 6 5 8 9 9 13 9 4 4 3 7 10 9 11 9 9 8 8 10 12 12 11 10 10 10
24 26 27 27 25 24 23 22 21 18 16 14 12 10 6 4 3 1 2 3 2 1 2 3 1 1 3 6 5 5 8 9 11 9 11 17 17 17 16 9 5 9 7 6 8 6 5 3 1 1 1 2 1 4 3 4 4 1 2 3 2 7 8 8 7 9 13 13 13 9 5 5 3 7 9 9 13 11 10 8 5 7 11 13 12 10 9 9
23 25 26 27 25 23 23 22 21 18 16 13 11 10 6 4 3 3 3 3 2 0 3 3 2 1 3 5 6 9 12 12 12 9 11 15 17 18 16 10 6 7 5 1 3 4 3 1 2 3 3 5 5 4 6 7 2 2 2 1 3 5 6 8 7 10 16 13 9 8 6 6 6 8 7 6 9 9 7 6 4 5 9 12 11 10 10 9
22 24 25 26 25 23 23 22 20 19 17 16 13 8 3 2 2 0 1 3 5 6 7 4 5 4 7 7 8 11 10 11 9 7 11 13 13 13 10 7 5 4 4 3 3 3 3 4 3 5 5 7 7 7 8 8 3 4 6 4 2 4 6 9 7 10 14 8 4 7 6 7 8 8 7 5 6 6 6 5 5 4 6 10 9 9 11 9
22 23 24 25 24 23 23 22 21 20 19 18 14 5 0 1 1 3 2 4 8 10 11 9 9 10 11 10 13 14 6 5 4 4 9 9 10 11 5 3 5 4 5 5 3 1 3 4 5 7 8 8 7 7 8 7 5 5 5 5 5 3 5 11 12 12 11 5 2 5 6 5 7 7 6 5 6 6 7 6 5 5 5 6 6 7 9 9
21 22 23 24 23 23 23 23 22 20 17 15 10 2 3 3 2 7 4 4 7 10 12 11 9 11 14 18 22 18 6 3 2 4 5 6 7 7 3 3 5 4 5 4 3 2 2 3 7 9 8 8 7 7 8 8 6 5 6 4 3 2 2 5 9 10 8 3 4 6 5 4 4 6 5 5 6 5 4 3 4 6 6 5 5 5 5 7
21 21 23 22 22 22 22 23 21 16 15 12 7 3 6 6 8 11 5 2 8 6 7 8 7 7 10 14 17 11 3 2 3 4 6 7 4 5 4 3 5 4 4 4 4 4 3 5 9 10 7 8 9 9 8 8 5 5 5 3 2 3 5 5 6 9 5 2 6 7 4 4 5 4 4 4 3 3 4 3 3 2 5 5 4 4 4 5
20 21 21 21 22 20 21 23 14 10 16 14 11 10 11 12 12 12 5 0 5 5 5 8 7 5 7 9 9 2 4 2 4 4 8 8 4 4 5 4 5 4 4 5 6 6 5 8 10 10 8 9 9 9 8 6 5 5 6 5 4 6 9 9 10 9 2 4 8 9 5 1 5 6 6 2 1 2 4 4 3 4 3 3 2 1 3 3
20 21 21 22 21 19 22 18 5 10 19 15 12 13 14 14 11 7 3 2 3 4 4 6 4 4 6 7 6 1 3 2 4 6 9 10 7 3 3 3 4 4 6 7 6 5 8 10 7 7 9 9 8 9 8 7 5 4 6 9 8 9 9 9 11 9 3 2 7 9 4 2 5 8 8 4 3 5 5 6 6 3 4 2 0 2 2 2
20 20 20 21 21 21 19 7 4 16 17 10 10 16 15 9 5 2 4 3 3 4 2 1 1 3 3 3 3 2 2 3 5 9 9 9 9 5 2 2 2 5 7 6 4 3 6 9 6 8 11 9 8 8 7 8 5 4 7 8 9 12 11 10 12 10 4 3 9 8 4 1 4 6 8 7 7 8 7 8 9 8 5 3 4 5 4 3
20 19 20 20 20 21 13 5 13 17 7 5 12 17 15 10 6 5 4 2 2 2 1 1 1 2 3 3 3 4 1 4 3 6 9 10 8 4 2 3 1 3 3 2 3 3 7 9 7 9 10 9 7 7 7 8 6 5 7 5 8 13 15 15 14 10 4 3 6 7 3 4 4 5 7 9 10 10 9 10 10 10 9 9 9 7 6 5
20 20 20 18 19 20 12 10 16 11 5 12 16 15 16 15 10 5 4 1 1 2 0 1 1 1 2 2 3 2 3 1 1 4 10 14 8 4 3 5 2 4 3 2 3 5 7 10 9 9 8 7 6 7 9 7 5 6 8 6 7 10 13 15 12 8 4 4 3 7 3 4 3 2 6 8 10 12 13 14 13 12 12 13 12 9 8 6
20 20 20 19 19 16 11 12 13 9 11 17 16 16 17 14 8 4 3 1 1 2 1 0 1 2 2 1 1 3 2 1 1 4 5 8 4 2 4 5 3 4 4 4 5 6 6 9 9 8 7 7 7 10 10 7 6 6 6 6 4 5 7 10 9 5 4 3 4 10 7 3 2 2 6 7 8 11 12 12 12 12 13 13 12 11 9 7
19 19 20 20 17 13 11 16 14 10 15 17 17 20 15 7 4 4 2 2 1 3 1 1 2 0 3 2 1 2 2 2 3 2 3 2 1 1 1 2 2 1 3 2 5 7 7 6 5 5 6 8 9 10 9 9 10 6 1 2 1 0 2 5 6 5 5 2 7 12 11 6 1 2 6 7 6 9 11 9 10 11 12 13 13 12 10 8
19 18 20 19 17 13 10 12 12 11 15 17 20 18 8 3 4 4 1 0 1 3 0 2 2 1 3 4 1 1 3 3 1 5 4 2 1 2 2 1 1 2 3 4 5 5 5 4 3 4 5 7 7 7 6 8 10 3 2 2 1 3 3 3 2 5 5 4 6 12 12 7 3 4 8 10 5 7 12 12 13 14 13 13 12 11 10 9
18 17 18 17 19 17 12 11 13 14 15 17 17 9 4 4 2 1 1 1 1 2 1 3 3 1 3 3 1 2 3 2 1 4 4 3 2 2 2 2 2 2 3 3 4 4 4 4 4 5 4 5 6 3 3 4 3 3 4 4 4 1 2 2 2 3 5 4 5 12 12 5 5 4 7 14 9 7 12 12 13 16 15 14 12 11 11 9
18 16 16 16 18 20 17 17 16 15 16 17 12 3 6 4 1 2 3 1 1 2 1 2 2 3 3 2 1 3 1 1 3 3 3 3 3 1 3 4 4 3 1 3 3 3 3 6 4 3 4 3 6 4 2 2 1 2 3 4 4 3 2 2 3 1 3 4 2 11 11 2 4 3 5 9 10 7 9 10 11 14 14 14 12 12 11 10
16 14 14 16 18 20 18 16 15 15 16 13 7 4 6 4 1 4 3 1 2 3 1 4 4 1 3 2 3 2 2 1 1 1 1 4 4 3 3 2 2 1 3 0 2 0 1 5 4 3 4 4 5 5 6 4 0 1 4 5 4 4 4 3 3 2 3 4 1 7 7 1 2 3 8 3 7 5 7 8 8 10 11 11 11 11 11 10
14 12 13 16 18 17 14 12 12 12 9 6 6 4 4 2 3 3 3 2 3 5 5 7 8 5 2 2 2 2 2 2 1 3 5 6 4 4 4 5 8 6 2 0 2 1 1 4 5 6 5 5 5 5 6 5 1 3 2 5 3 4 4 2 4 5 4 3 1 1 2 1 2 3 7 3 8 6 7 9 9 10 9 9 9 8 9 9
13 12 12 13 16 15 12 11 12 8 1 5 5 3 1 2 3 1 2 3 2 4 5 8 8 6 4 4 6 8 4 4 4 3 4 5 5 6 5 3 8 8 5 1 1 2 2 4 6 8 5 1 2 4 4 6 3 3 2 2 5 4 6 3 3 1 3 4 0 2 2 1 1 2 7 5 7 4 6 9 10 10 10 10 8 8 8 8
13 11 9 12 16 14 11 12 11 4 3 6 4 1 3 3 3 2 2 3 2 4 5 5 4 3 3 4 6 9 6 5 5 3 3 3 3 6 6 3 6 9 6 2 0 0 0 3 6 4 5 5 3 2 3 6 6 3 1 4 4 1 4 3 0 2 3 3 1 3 2 1 1 1 5 3 4 4 6 10 9 8 9 7 5 5 6 6
12 8 8 13 14 11 10 13 9 4 5 4 2 2 2 3 4 4 2 3 2 5 5 2 1 1 2 3 3 7 7 4 2 2 3 3 2 4 5 4 6 10 9 4 1 1 1 1 6 3 4 7 5 3 1 3 2 5 4 3 1 1 2 1 1 2 2 3 1 3 3 1 1 2 2 2 3 3 4 11 10 8 8 6 6 7 6 5
8 4 4 8 8 7 11 13 8 4 5 2 2 3 2 2 5 5 4 3 3 5 3 1 1 1 3 3 0 4 7 5 3 2 2 2 1 2 5 4 5 10 11 6 3 2 1 2 4 5 5 7 4 4 2 4 2 3 2 3 1 3 3 3 3 3 4 3 2 2 2 2 2 2 1 3 6 7 4 6 11 9 8 7 7 8 7 6
3 3 3 5 3 6 12 12 5 4 2 1 2 2 3 2 4 6 6 3 2 3 1 1 2 2 2 4 3 3 5 5 4 2 1 2 1 3 6 5 4 9 10 6 5 3 2 4 2 6 7 4 2 1 1 2 3 3 1 2 1 1 1 2 2 1 5 4 4 4 1 3 3 1 3 5 6 6 5 5 10 9 9 10 9 9 8 6
2 2 4 3 2 11 15 9 3 2 2 2 2 2 3 2 3 7 7 4 3 3 3 2 2 2 1 4 5 3 3 4 4 3 2 3 2 2 5 4 4 6 6 5 5 4 2 3 1 4 5 3 2 4 4 4 4 3 3 3 3 2 2 2 3 2 2 4 4 5 3 1 2 1 4 5 5 5 4 4 10 11 11 12 11 11 10 8
3 1 5 6 3 8 9 4 2 3 2 3 4 2 2 2 2 6 7 5 4 2 2 2 1 2 2 2 3 3 3 3 4 3 2 2 2 0 3 5 5 3 2 2 3 3 0 2 2 3 4 4 7 8 6 6 6 3 2 2 2 2 3 4 4 3 3 4 3 3 2 2 3 3 3 4 5 5 4 4 8 11 11 12 12 11 11 10
1 4 9 9 5 5 5 1 3 1 2 4 2 2 2 2 2 5 6 5 4 2 2 2 1 2 2 2 2 2 3 2 2 2 1 1 1 2 4 6 6 4 3 2 3 3 1 2 3 4 5 4 6 6 7 7 3 2 2 1 1 2 3 5 4 3 4 3 3 4 2 2 3 2 3 4 5 6 4 4 8 8 8 11 11 10 10 9
1 4 7 8 4 3 5 1 3 1 2 1 3 3 3 3 3 3 4 4 4 3 3 2 1 2 2 2 3 2 2 2 2 2 1 1 1 4 5 6 6 4 3 1 2 3 2 1 2 2 4 5 6 7 9 9 6 3 4 5 4 4 3 5 2 3 4 2 3 6 2 1 2 2 4 5 6 7 7 6 7 7 7 9 9 9 9 8
2 2 4 7 5 3 3 3 4 2 2 3 3 2 2 3 2 3 3 4 4 3 2 2 1 2 3 3 3 2 2 3 1 1 2 1 1 3 4 6 5 3 3 4 3 1 1 0 2 3 2 1 2 2 2 4 4 3 5 7 7 5 2 5 3 4 3 2 3 5 4 3 2 3 4 4 6 9 8 7 8 8 8 8 7 7 8 8
2 2 3 6 5 4 0 2 4 5 3 4 3 2 1 0 2 3 5 3 3 4 3 3 3 2 3 4 2 1 2 2 1 1 1 1 2 2 4 5 4 5 7 7 4 2 2 1 2 4 3 3 4 4 4 2 3 5 7 10 9 6 4 5 4 3 4 4 3 1 8 12 6 4 5 2 5 10 10 8 8 8 8 8 8 9 9 8
2 1 2 3 4 3 3 3 5 5 2 3 2 2 2 2 2 4 5 3 3 4 3 4 6 3 2 4 3 1 2 2 3 3 1 1 1 3 4 4 5 8 8 7 5 3 3 3 3 2 0 2 4 6 5 4 3 4 7 10 9 7 7 6 3 4 7 5 2 1 10 16 10 8 8 5 5 9 10 10 9 8 8 8 8 10 11 9
2 1 0 1 1 1 2 3 4 5 4 4 2 2 4 6 5 3 4 4 3 4 3 4 9 6 2 4 3 2 3 3 4 4 2 2 3 4 5 5 6 9 8 5 4 3 4 1 2 1 3 6 5 4 5 5 3 4 7 9 11 9 6 5 1 3 5 5 6 6 9 12 11 10 10 6 5 8 10 10 9 8 9 10 10 12 12 11
2 1 3 2 1 2 2 2 3 5 5 4 3 3 4 6 6 3 3 4 5 5 3 3 6 8 8 6 4 4 4 2 1 3 2 3 4 3 3 4 5 7 6 5 4 2 4 1 4 2 3 6 8 7 9 9 6 5 7 10 12 10 6 7 4 4 6 9 14 14 11 8 5 7 9 7 6 8 9 9 9 8 9 11 13 13 12 11
2 1 3 3 3 4 3 4 4 5 4 3 3 3 2 5 4 2 3 4 3 5 5 5 5 7 9 9 7 5 4 2 2 2 2 3 3 2 1 1 3 5 6 4 4 3 3 2 5 4 3 4 7 8 12 12 5 3 8 10 10 9 9 10 9 9 10 11 15 17 14 6 0 3 7 6 6 9 10 10 10 9 8 10 13 14 11 10
4 4 2 1 3 5 4 4 3 4 3 2 2 2 3 4 4 2 3 2 3 3 4 4 6 6 6 9 8 5 5 4 2 3 3 2 0 1 2 3 2 2 4 4 3 4 3 2 4 4 4 3 6 8 11 11 3 6 10 11 9 5 5 5 5 7 10 12 13 13 11 5 2 4 8 7 7 11 12 12 10 9 8 10 12 12 9 8
9 4 3 2 0 4 4 4 3 4 1 2 1 3 4 4 4 4 3 3 4 6 5 5 7 5 5 8 6 3 4 5 4 5 3 1 1 0 1 3 3 4 0 2 2 3 3 2 2 3 3 3 7 7 8 7 4 6 6 7 6 4 7 5 4 7 13 15 12 8 6 5 4 6 9 9 10 11 11 10 10 10 9 10 10 10 8 7
Wind_Direction
345 345 344 343 342 340 338 336 333 331 331 329 327 328 327 328 329 331 330 328 329 326 328 328 324 328 330 336 335 327 325 316 312 291 241 256 245 217 188 173 174 167 160 172 191 192 196 200 222 215 202 221 197 220 220 194 149 96 81 49 292 286 299 270 251 127 131 146 153 154 168 138 139 164 174 53 20 340 92 110 128 115 118 129 136 144 144 144
345 344 343 342 341 339 337 334 331 330 329 327 327 327 326 327 330 331 330 329 330 328 329 328 325 329 335 340 337 331 327 317 308 280 250 257 246 201 189 170 168 183 181 183 196 194 178 186 210 200 186 209 197 223 203 172 142 122 114 114 257 229 203 238 114 114 131 142 140 138 160 135 139 155 143 118 133 187 116 126 133 123 127 132 139 144 143 145
344 344 342 342 339 337 336 333 331 329 326 326 324 325 327 328 329 330 331 332 331 331 329 326 326 330 342 345 340 335 324 324 298 268 270 256 223 198 193 187 172 187 194 192 195 196 191 198 204 185 186 223 213 230 203 160 172 162 124 136 245 215 193 214 134 122 123 139 133 137 176 142 152 184 131 140 154 166 147 152 145 135 140 144 146 145 144 148
342 342 341 340 337 334 333 331 330 327 324 324 322 323 326 327 329 332 333 333 332 333 329 327 327 330 349 350 347 339 322 335 280 261 350 307 210 193 192 194 181 185 196 196 197 202 213 231 229 199 200 233 231 233 211 181 183 168 150 179 223 164 113 193 153 130 126 146 138 142 167 143 162 190 120 150 149 154 170 168 149 142 147 150 149 146 147 151
341 341 340 338 335 333 331 330 328 326 324 322 321 321 322 325 331 333 332 332 333 332 330 329 328 333 355 359 1 342 336 58 254 273 29 19 198 187 187 184 177 180 189 198 202 210 233 260 262 233 226 235 224 222 216 193 159 147 208 201 183 125 109 182 143 135 137 143 135 142 149 132 148 123 123 175 146 154 181 164 148 146 150 151 149 147 148 150
341 339 338 336 334 332 329 328 326 325 324 321 320 319 319 325 330 331 330 331 334 331 330 327 325 340 4 2 13 347 15 161 252 280 35 22 176 180 179 173 171 178 187 197 204 214 233 244 247 233 231 233 210 214 216 184 153 147 235 217 159 133 143 162 139 140 140 138 143 146 141 120 127 128 142 182 150 171 172 149 147 146 147 145 145 148 148 152
339 337 337 335 333 331 329 328 325 323 323 320 317 314 318 326 328 328 329 332 333 329 326 322 322 348 14 6 24 24 75 264 264 245 359 127 164 171 170 168 166 177 193 197 199 207 213 210 224 225 224 230 211 222 207 176 178 162 178 203 169 141 157 160 145 144 139 142 149 142 139 129 126 126 127 138 168 179 128 142 145 143 142 141 145 149 150 152
338 337 336 334 332 331 329 326 324 322 321 319 313 314 321 327 326 326 331 333 331 329 321 317 322 15 40 44 43 11 231 246 242 183 168 145 154 162 162 167 171 183 195 199 197 195 200 212 228 231 219 225 229 251 207 171 197 209 168 179 173 156 165 153 143 144 138 140 142 137 130 117 119 104 62 96 148 147 130 142 143 142 141 142 146 148 152 154
338 337 336 334 332 330 328 326 325 323 322 322 317 320 325 324 326 328 332 334 331 327 315 311 325 131 85 45 47 344 264 232 184 163 167 153 156 166 167 171 180 188 194 204 206 198 198 208 225 227 217 233 250 270 213 157 190 214 182 161 167 167 158 148 146 146 140 146 146 135 122 120 136 122 35 331 151 178 152 144 146 146 145 147 147 149 154 156
338 337 336 335 333 330 329 328 326 324 327 329 328 327 326 323 326 329 332 335 331 324 313 305 146 130 101 50 88 61 277 227 167 171 176 170 163 170 178 180 182 187 192 204 210 208 211 214 227 235 245 254 239 252 200 158 224 198 162 146 154 146 142 146 147 145 140 155 158 135 123 124 114 100 160 231 169 152 150 146 149 149 149 150 148 152 157 158
341 340 338 336 336 333 330 331 329 328 332 337 335 329 324 323 327 330 333 336 330 322 313 292 139 128 111 90 112 208 230 148 160 173 178 183 177 179 186 187 183 187 189 197 213 216 221 234 263 299 269 274 273 269 208 175 284 178 150 128 130 113 100 136 146 148 143 160 166 124 99 70 7 3 176 195 161 151 154 149 150 153 154 153 151 157 161 163
345 344 343 340 338 336 334 333 332 332 336 339 333 326 323 326 330 329 332 336 333 335 332 134 133 131 113 84 213 215 178 126 158 185 187 182 182 193 195 192 190 192 190 189 218 221 224 240 263 283 269 305 327 288 245 308 298 167 148 127 132 119 100 157 148 154 150 153 165 124 94 74 300 252 180 162 148 148 154 151 152 156 154 153 154 159 165 168
346 346 345 342 340 339 337 336 334 335 337 336 327 323 325 329 332 330 333 336 337 356 33 130 134 130 107 167 239 235 252 292 281 240 208 186 152 187 199 196 197 201 198 195 215 221 225 235 238 246 270 292 292 262 269 291 222 164 163 134 130 133 131 101 54 248 168 153 173 147 116 184 211 218 159 95 23 127 156 155 155 158 155 156 157 162 167 169
346 346 346 344 343 341 339 338 336 336 337 332 324 325 331 333 333 333 334 332 351 30 85 131 133 115 104 260 266 278 300 294 287 255 211 192 160 169 193 194 199 207 204 205 218 227 238 248 246 247 265 257 250 271 308 313 127 161 182 149 124 150 153 116 112 224 227 172 189 183 128 193 202 181 136 101 34 81 163 162 157 158 159 160 158 167 167 168
345 346 346 346 345 343 341 339 337 337 335 329 326 331 335 336 332 333 337 338 2 65 115 132 147 118 43 278 279 299 310 287 263 233 207 193 172 172 187 190 202 211 207 212 225 243 261 271 263 241 256 262 279 356 351 329 338 160 166 152 150 163 153 153 170 182 177 184 201 213 108 187 212 166 138 138 142 112 154 172 172 161 159 163 160 169 169 171
344 345 346 346 346 345 343 341 338 335 332 329 332 336 333 328 336 342 332 330 355 135 132 121 170 154 32 282 294 304 285 235 222 215 204 196 182 180 186 188 203 211 211 219 231 248 265 278 257 212 221 273 278 59 31 350 338 342 132 145 173 159 149 172 204 202 189 182 201 217 137 157 222 160 138 150 161 147 152 198 201 168 159 165 163 170 172 175
344 345 345 345 347 347 344 343 341 335 332 333 334 336 333 316 321 350 335 342 71 166 167 343 352 142 256 281 304 303 264 233 228 222 209 204 195 186 181 181 201 207 211 223 234 247 259 266 229 207 122 138 223 95 67 333 276 293 103 132 166 160 158 162 180 210 205 197 201 201 162 186 217 146 142 164 168 160 171 196 204 174 162 167 166 171 176 177
343 342 343 344 346 346 345 345 345 342 337 336 335 333 318 280 266 169 105 114 104 163 252 297 336 90 274 283 283 278 284 253 230 236 227 211 200 189 180 177 187 188 198 228 239 234 236 259 152 142 227 195 209 112 141 219 210 235 94 101 133 159 170 175 173 192 196 203 201 182 173 195 179 143 144 162 169 171 184 185 173 166 164 167 167 170 179 178
341 341 341 342 345 347 346 345 347 345 339 335 335 327 303 273 249 183 143 127 117 319 280 250 173 136 283 261 254 270 273 242 222 233 226 206 194 191 185 179 172 164 161 184 239 213 177 47 117 150 194 212 222 182 197 227 208 8 343 98 138 170 191 189 183 182 181 188 191 174 175 171 160 164 150 145 164 173 188 174 137 148 160 167 171 171 178 176
341 340 340 340 343 346 346 344 344 343 340 337 336 336 322 344 11 214 155 172 206 232 259 234 184 243 278 271 286 289 257 218 216 216 208 201 181 180 186 175 157 153 167 172 220 231 136 111 184 197 196 211 226 214 220 242 267 313 304 303 224 194 191 185 184 178 170 166 181 170 157 157 164 168 155 131 143 163 190 174 137 145 155 164 169 167 174 171
340 340 339 338 340 344 344 342 340 339 341 337 336 352 165 197 29 318 292 228 230 224 244 243 206 235 260 267 288 290 261 188 214 220 208 203 161 162 193 165 152 180 207 186 184 237 118 140 212 215 205 211 225 234 238 246 255 265 266 283 290 262 191 178 173 171 167 142 139 153 133 153 167 158 151 134 141 169 194 178 153 159 154 152 153 155 172 165
341 340 338 337 338 342 343 339 338 340 343 335 329 348 250 263 325 319 304 281 271 222 227 248 234 246 258 265 272 268 257 155 224 263 212 183 144 162 201 136 153 200 222 179 138 149 151 195 229 221 211 215 227 242 252 252 242 246 251 265 296 308 103 140 154 166 175 138 137 154 131 138 155 145 148 157 167 175 186 185 174 170 158 152 150 144 163 157
341 338 338 337 336 339 340 337 337 345 352 337 309 254 269 303 332 324 321 301 294 242 211 232 235 255 261 270 271 250 197 134 197 245 200 162 135 169 165 141 167 196 212 175 140 154 185 227 227 221 209 208 228 238 246 261 251 229 241 248 232 173 118 110 163 183 189 116 140 141 104 117 132 133 160 169 164 116 87 41 359 229 173 155 151 134 144 153
340 338 338 335 334 338 337 335 335 353 353 331 297 283 293 307 311 311 325 188 286 282 226 213 209 231 242 263 277 203 114 162 184 210 191 157 129 168 164 163 172 187 214 193 159 160 214 234 215 213 215 202 217 233 229 242 254 237 223 203 188 174 157 157 174 180 140 75 129 121 75 98 154 167 189 179 78 105 100 83 47 306 285 112 104 113 126 134
340 338 335 334 335 334 333 334 340 352 341 315 299 322 328 313 294 297 355 46 294 291 236 207 199 226 239 249 256 170 107 204 206 196 184 158 147 167 178 167 161 193 217 206 180 177 233 242 207 203 228 215 211 229 220 211 230 252 231 210 188 173 174 168 158 152 108 101 165 142 99 264 202 184 187 173 183 183 168 158 154 217 289 8 11 250 183 143
340 336 334 334 334 332 336 339 324 335 327 297 317 344 345 327 303 350 45 41 314 286 217 162 165 213 234 229 214 123 84 272 233 190 181 169 165 162 186 198 165 194 205 203 194 190 235 240 206 199 223 223 218 232 223 203 206 245 236 211 183 174 173 167 160 159 157 180 194 183 125 166 226 207 185 173 188 192 186 188 178 177 207 241 238 238 221 188
340 335 332 333 333 336 338 306 316 325 310 301 332 338 340 339 349 26 54 46 326 296 220 314 337 175 202 200 157 105 140 271 258 181 179 182 175 139 177 224 197 204 207 163 203 229 229 231 215 201 215 222 218 236 231 196 186 236 242 199 164 169 168 169 174 182 187 125 177 204 123 108 223 221 176 166 181 192 192 194 190 179 185 205 221 232 226 202
339 333 329 330 333 333 323 303 314 315 301 322 329 332 336 335 342 29 77 69 330 334 91 229 302 216 234 217 150 159 204 206 359 221 189 180 174 124 183 219 206 249 281 121 212 254 231 223 215 192 201 220 215 225 223 193 189 234 239 212 166 167 175 177 182 189 172 98 152 212 158 104 243 228 147 160 181 196 201 196 189 181 185 198 207 222 229 211
339 332 324 326 331 330 324 311 302 301 325 334 336 335 333 332 349 57 94 78 36 307 261 163 316 237 233 281 234 239 259 20 280 244 176 170 179 114 186 209 192 255 265 168 201 260 248 229 215 186 186 213 221 230 222 198 216 236 232 228 187 166 180 180 186 182 135 111 192 208 184 133 245 202 148 169 197 206 207 200 190 182 185 192 195 207 223 217
337 329 319 322 328 325 319 308 296 310 332 337 336 328 325 333 40 69 28 32 353 271 237 352 318 167 139 143 265 241 224 273 243 153 109 176 222 56 206 203 149 255 284 230 235 252 251 248 230 196 187 197 211 228 224 210 224 239 287 279 285 90 139 155 178 156 129 197 218 205 188 155 193 214 177 191 207 195 192 194 192 185 183 189 190 195 206 215
333 324 317 320 320 312 305 302 307 325 326 328 331 326 331 24 68 78 42 66 270 276 253 263 286 31 136 167 235 219 187 262 237 135 153 198 106 30 348 359 52 345 334 313 290 277 266 269 264 234 205 180 189 223 238 228 223 213 58 55 30 340 4 47 144 149 161 221 220 199 184 164 201 230 200 207 209 173 180 187 188 184 184 190 190 189 196 208
327 320 316 315 310 301 286 288 309 318 314 324 332 335 50 49 34 94 241 270 300 289 264 245 232 233 210 177 217 217 166 258 236 148 167 169 138 190 215 172 146 28 335 277 287 320 297 259 249 257 241 164 152 201 278 280 230 128 77 71 85 350 353 4 244 180 189 236 212 181 169 171 233 246 214 208 198 172 182 186 183 181 183 189 188 187 194 198
324 317 314 309 304 298 290 294 307 309 312 328 341 24 83 64 22 270 276 304 305 265 273 281 251 213 186 127 267 245 139 182 210 178 164 124 107 226 234 205 161 137 213 260 317 351 324 290 273 266 273 178 150 171 204 260 290 128 141 117 118 149 136 227 245 171 194 250 191 157 158 199 252 312 304 213 186 172 178 177 175 178 182 184 183 185 189 190
326 316 313 304 298 294 291 297 303 299 310 339 14 58 56 53 283 291 294 277 283 280 344 355 327 244 162 161 229 212 120 151 193 145 67 68 48 342 328 332 338 197 183 334 336 290 290 294 279 249 246 187 161 175 166 160 238 206 174 141 138 167 155 190 214 158 195 227 87 135 156 238 204 281 316 230 158 148 156 157 162 171 179 179 180 183 182 187
331 319 311 302 294 287 286 298 303 293 306 8 45 57 52 29 279 306 300 279 315 325 1 17 13 25 26 306 314 34 114 152 359 40 58 62 49 357 12 19 358 358 66 31 274 265 318 262 279 299 267 173 167 202 151 115 293 262 149 120 155 191 159 170 204 178 169 168 48 92 147 2 187 262 321 66 118 127 145 147 153 164 172 171 176 184 179 185
338 323 309 296 287 276 275 294 295 279 291 59 51 39 32 255 243 246 289 291 335 352 12 20 21 26 4 345 2 360 23 61 19 37 65 60 54 20 15 32 13 17 39 24 275 12 5 274 294 318 318 103 152 231 163 126 175 277 29 164 217 187 136 135 250 244 108 130 73 17 93 66 168 302 340 51 109 127 147 146 152 161 166 170 176 181 181 184
343 332 311 291 280 262 260 283 281 247 90 72 72 314 253 244 246 248 308 323 356 37 47 33 10 14 3 15 10 348 360 36 17 35 42 12 51 27 0 4 13 13 20 28 286 91 107 275 289 315 339 333 329 272 197 159 154 148 254 241 239 168 119 114 202 341 60 125 69 14 61 68 101 328 327 11 106 123 135 132 137 144 145 151 148 146 161 166
335 337 310 279 262 241 248 269 256 164 85 57 18 305 242 222 282 302 336 339 11 56 66 69 8 23 27 41 1 339 4 28 359 53 51 3 60 52 12 351 352 356 352 1 44 243 117 322 286 322 360 309 319 61 190 251 158 150 196 239 152 166 226 137 168 194 105 121 98 15 353 347 122 208 285 356 32 23 112 119 111 104 105 101 89 88 87 93
325 1 314 257 236 237 242 238 220 120 67 32 303 305 272 242 288 306 334 355 57 70 70 122 78 48 41 61 22 337 22 38 8 33 57 16 5 24 22 360 336 345 343 359 52 299 27 89 274 309 346 310 327 69 160 261 245 178 277 315 110 166 197 163 181 178 127 138 144 67 355 274 240 246 309 35 17 355 351 91 94 86 80 80 82 84 78 75
333 33 280 243 211 220 209 191 153 90 87 209 218 251 285 296 302 307 319 350 80 91 124 178 59 50 34 51 58 12 27 39 25 27 32 19 350 333 3 9 344 338 333 359 48 346 4 75 286 309 341 339 356 57 205 220 200 193 293 300 253 265 237 179 218 168 123 139 143 124 190 263 268 261 57 42 37 17 350 55 77 72 69 70 68 75 79 75
36 46 269 283 205 185 168 145 112 119 155 254 247 246 292 313 325 324 328 4 78 113 135 135 99 98 58 39 39 22 30 33 20 29 27 21 47 357 344 350 342 334 335 3 25 358 1 56 340 312 337 338 285 287 285 262 237 193 156 205 222 208 169 176 271 301 84 120 144 150 173 250 329 62 92 66 46 30 353 47 77 72 68 69 66 68 68 64
55 27 268 310 288 187 143 106 258 158 153 254 227 210 317 338 2 350 345 9 48 85 101 99 113 84 66 60 37 29 58 45 3 29 64 43 58 57 305 334 349 357 31 14 316 300 294 84 31 304 288 269 269 284 294 272 252 210 161 191 198 168 140 149 214 250 57 81 109 102 109 107 47 39 96 87 56 42 359 13 69 72 68 69 68 66 64 59
82 278 280 307 289 200 124 25 279 141 199 237 200 137 15 8 20 6 355 4 16 25 45 52 112 84 78 113 84 58 72 53 6 31 90 72 23 286 299 347 9 23 44 23 305 310 325 67 29 310 292 298 297 319 350 353 11 36 340 349 22 259 173 145 178 174 104 102 113 85 67 126 89 65 113 102 72 79 78 52 62 66 65 69 69 65 64 61
252 267 287 321 314 166 124 201 260 276 253 265 57 53 26 20 28 30 5 347 354 18 23 9 68 101 106 114 100 124 143 92 46 8 44 96 277 293 325 359 17 26 37 195 263 335 341 18 56 15 344 346 349 0 2 359 18 23 309 328 335 287 166 131 100 71 94 179 151 119 124 155 86 88 119 119 110 106 100 91 92 88 76 73 71 68 68 63
322 276 276 312 330 98 129 197 175 125 10 49 67 62 42 2 353 58 40 338 347 29 11 321 341 101 111 102 80 67 105 119 115 340 10 48 285 294 335 349 5 18 330 262 239 147 101 191 113 101 81 50 23 4 332 330 341 315 308 336 338 326 86 125 109 66 98 168 124 116 133 115 80 93 102 111 123 117 107 97 98 97 91 84 75 70 69 66
24 13 314 315 344 51 7 241 117 88 36 59 62 15 63 295 301 29 38 358 352 19 359 322 349 43 89 89 87 57 66 106 117 70 36 359 302 270 313 333 351 0 344 336 348 92 113 32 79 122 155 168 183 220 229 264 303 306 331 347 341 339 51 99 107 107 146 131 61 86 142 131 137 144 124 127 132 125 123 115 106 101 95 92 86 80 73 68
70 17 15 338 328 8 358 355 58 70 54 85 79 336 23 67 20 15 21 4 357 14 5 353 4 15 127 96 86 85 53 26 31 44 44 317 295 293 327 344 359 1 2 3 6 58 85 17 25 92 261 249 219 234 261 291 288 310 343 350 346 359 45 56 68 147 148 120 54 224 142 135 152 160 149 173 165 131 125 118 116 116 109 105 100 91 83 74
41 270 357 54 276 294 21 20 59 74 53 68 84 12 39 59 57 31 1 343 354 18 28 11 10 17 71 99 107 80 44 44 18 359 348 3 4 358 354 350 355 0 8 9 360 66 101 358 312 42 352 330 317 302 318 326 322 343 357 360 354 2 59 83 90 149 139 127 141 153 135 132 147 153 155 176 162 126 120 117 120 125 119 112 103 94 88 81
23 331 303 350 328 242 276 353 76 91 58 49 53 28 54 70 56 35 14 2 350 1 49 70 28 26 34 48 91 81 43 68 21 338 352 18 14 36 22 335 334 351 10 19 354 56 111 322 319 37 23 340 345 350 343 339 339 351 1 8 4 7 64 90 77 84 92 114 128 126 113 108 129 157 162 165 144 126 121 118 117 111 109 107 99 94 91 87
14 299 309 349 346 305 316 2 63 92 46 34 50 12 40 80 61 27 37 49 16 349 15 60 50 47 48 46 65 65 28 86 117 345 24 37 14 44 78 275 288 334 2 16 338 348 64 333 324 34 59 340 348 357 344 333 327 16 10 7 8 17 50 72 85 88 85 101 120 120 114 104 341 157 139 141 141 129 118 114 110 102 99 99 95 92 88 87
334 269 295 25 335 332 355 1 47 93 44 16 71 23 29 69 65 46 21 43 88 44 22 54 52 48 52 43 45 36 5 24 46 328 348 43 199 189 172 205 198 4 359 359 337 346 23 340 333 42 64 336 336 355 343 327 341 54 19 357 359 29 75 89 108 117 113 116 119 116 115 126 197 137 116 121 133 125 119 116 111 104 99 93 92 92 88 84
355 320 337 86 247 341 5 346 4 90 118 254 117 75 75 75 58 67 49 343 25 43 38 69 71 59 47 32 15 337 332 337 305 292 316 333 277 270 229 218 147 116 75 353 359 339 1 27 9 47 72 320 319 342 345 340 28 46 352 332 0 72 127 107 81 124 134 134 133 130 127 134 135 118 116 122 123 119 120 120 116 112 105 96 93 92 87 81